Tracking 28794 objects as of 19-Apr-2024
HD Live streaming from Space Station
objects crossing your sky now

COSMOS 627

Track COSMOS 627 now!
10-day predictions
COSMOS 627 is classified as:


NORAD ID: 7008
Int'l Code: 1973-109A
Perigee: 972.2 km
Apogee: 1,020.0 km
Inclination: 83.0 °
Period: 104.9 minutes
Semi major axis: 7367 km
RCS: 1.818 m2 (large)
Launch date: December 29, 1973
Source: Commonwealth of Independent States (former USSR) (CIS)
Launch site: PLESETSK MISSILE AND SPACE COMPLEX (PKMTR)
Your satellite tracking list
Your tracking list is empty




NASA's NSSDC Master Catalog

Two Line Element Set (TLE):
1 07008U 73109A   24109.73203161  .00000109  00000-0  10131-3 0  9993
2 07008  82.9558 343.6438 0032445  14.5547  47.4949 13.72967999519553
Source of the keplerian elements: AFSPC